Regional Weather Roundup
Issued by NWS

Home | Current Version | Previous Version | Graphics & Text | Print | Product List | Glossary Off
Versions: 1 2 3 4 5 6 7 8 9 10 11 12 13 14 15 16 17 18 19 20 21 22 23 24 25 26 27 28 29 30 31 32 33 34 35 36 37 38 39 40 41 42 43 44 45 46 47 48 49 50

000
ASUS43 KLSX 010807
RWRMO

WEATHER SUMMARY FOR MISSOURI
NATIONAL WEATHER SERVICE SPRINGFIELD MO
300 AM CDT FRI AUG 01 2014

NOTE: "FAIR" INDICATES FEW OR NO CLOUDS BELOW 12,000 FEET WITH NO
       SIGNIFICANT WEATHER AND/OR OBSTRUCTIONS TO VISIBILITY.
       CURRENT SKY AND/OR WEATHER CONDITIONS ARE NOT AVAILABLE FOR
       CHILLICOTHE AND FARMINGTON.

MOZ001>031-035>038-043-044-053-054-010900-
...NORTHERN AND WESTERN MISSOURI...

CITY           SKY/WX    TMP DP  RH WIND       PRES   REMARKS
KANSAS CTY INT CLOUDY    68  60  75 NW3       30.08R
KANSAS C DTWN  CLOUDY    72  59  63 NE3       30.06R
LEE`S SUMMIT   CLEAR     69  58  67 SE5       30.07R
ST JOSEPH      CLOUDY    67  62  84 S5        30.07F
CHILLICOTHE      N/A     66  61  84 CALM      30.08R
KIRKSVILLE     CLOUDY    64  60  87 CALM      30.08R

$$
MOZ066>068-077>081-088>096-101>105-010900-
...SOUTHWEST MISSOURI...

CITY           SKY/WX    TMP DP  RH WIND       PRES   REMARKS
SPRINGFIELD    FOG       63  62  97 SW5       30.08S VSB 1/2
JOPLIN         CLEAR     62  62 100 S3        30.08S

$$
MOZ032>034-039>042-045>050-055>058-069>072-010900-
...CENTRAL MISSOURI...

CITY           SKY/WX    TMP DP  RH WIND       PRES   REMARKS
COLUMBIA       CLEAR     66  58  75 E7        30.06S
JEFFERSON CITY CLEAR     63  59  87 SE5       30.05R
ROLLA          CLEAR     64  62  93 SW8       30.06S
SEDALIA        PTCLDY    63  58  83 CALM      30.07S
WHITEMAN AFB   MOCLDY    65  50  59 CALM      30.06S
OSAGE BEACH    CLEAR     64  59  82 CALM      30.07R

$$
MOZ051-052-059>065-010900-
...EAST CENTRAL MISSOURI...

CITY           SKY/WX    TMP DP  RH WIND       PRES   REMARKS
ST LOUIS INTL  CLEAR     72  63  73 CALM      30.07R
SPIRIT OF STL  CLEAR     64  61  90 CALM      30.05S
ST CHARLES     CLEAR     65  61  87 CALM      30.05S

$$
MOZ072>076-082>087-097>100-106>115-010900-
...SOUTH CENTRAL AND SOUTHEAST MISSOURI...

CITY           SKY/WX    TMP DP  RH WIND       PRES   REMARKS
CAPE GIRARDEAU MOCLDY    62  61  96 CALM      30.07S FOG
FARMINGTON     CLOUDY    64  63  94 SW5       30.10S VSB 1
POPLAR BLUFF   FOG       62  59  90 CALM      30.06S VSB 1/2
WEST PLAINS    FOG       60  59  96 CALM      30.10S VSB 1/2

$$


USA.gov is the U.S. government's official web portal to all federal, state and local government web resources and services.